FENGYUN 1C DEB, 30397

Orbit data source: Space-Track

FENGYUN 1C DEB, 30397 is space debris in SSO originally from a launch on Mon, 10 May 1999 UTC launched from the Taiyaun Space Center, China (TSC). Fengyun 1C debris stems from the Chinese weather satellite Fengyun-1C, which was intentionally destroyed by a Chinese anti-satellite missile in 2007. This event dramatically increased the amount of space debris, with thousands of trackable fragments posing hazards to satellites and human spaceflight. The Fengyun 1C debris cloud has become a focal point in discussions about space sustainability and the need for international regulations to prevent the creation of new debris.

Loading next visibility...
Identifier
30397, 1999-025ADL
Orbit
SSO
Country
Flag of CNCN / PRC
Related business
Manufacturer
Unknown
Mission
Spacecraft
Bus & Motor
Unknown
Mass
Unknown
Launch date (UTC)
1999-05-10 (27 years ago)
Launch vehicle
Unknown
Launch site
Taiyaun Space Center, China (TSC)
Object type
Payload
Rocket body
Debris
Shape & HBR
Unknown shape, 0.1 m
Radar Cross Section
Medium (>0.1 m² and <1 m²)

Expand to show TLE details & history
Last TLE update: 1 day ago

TLE from 1 day ago
0 FENGYUN 1C DEB
1 30397U 99025ADL 26256.30321502  .00001001  00000-0  64792-3 0  9997
2 30397  98.4331  27.4827 0149029  42.3031  15.8511 13.99496873996048
Epoch: 2026-09-13T07:16Z
TLE epoch observation values (Epoch: 2026-09-13T07:16:37.777Z)
Latitude
57.72671°
Longitude
-87.47842°
Altitude
801.044 km
Speed
7.512 km/s
True Right ascension
00h 55m 54s
True Declination
57° 34' 20"
Sunlit
Object was in daylight at epoch
Visualization orbit readout
Latitude
Unknown
Longitude
Unknown
Altitude
Unknown
Speed
Unknown
Apparent Right ascension
Unknown
Apparent Declination
Unknown
Sunlit
N/A
Visualization observer readout
Local Sidereal Time
02:22:52
Azimuth
Unknown
Elevation
Unknown
Doppler factor
Unknown
Orbital elements
Apogee altitude
1,001.067 km
Perigee altitude
784.353 km
Semi-major axis
7,270.847 km
Eccentricity
0.0149
Inclination
98.4331°
RAAN
27.4827°
Arg. of periapsis
42.3031°
True anomaly
16.32605°
Mean anomaly
15.8511°
Eccentric anomaly
16.08772°
Mean motion
3.50079 °/min
Orbital period
102.83 mins
BSTAR
0.00064792
Loading maneuver chart data...
Computing Atmospheric mass density...

Documentation

Showing up to 5 results
|